Tracking 28052 objects as of 23-Sep-2023
HD Live streaming from Space Station
objects crossing your sky now

SL-24 DEB

Track SL-24 DEB now!
10-day predictions


NORAD ID: 37586
Int'l Code: 2004-025L
Perigee: 671.7 km
Apogee: 1,127.0 km
Inclination: 98.2 °
Period: 102.8 minutes
Semi major axis: 7270 km
RCS: 0.003 m2 (small)
Launch date: June 29, 2004
Source: Commonwealth of Independent States (former USSR) (CIS)
Launch site: TYURATAM MISSILE AND SPACE COMPLEX (TTMTR)

Note: This is SATELLITE DEBRIS
Your satellite tracking list
Your tracking list is empty




NASA's NSSDC Master Catalog

Two Line Element Set (TLE):
1 37586U 04025L   23265.97635880  .00002087  00000-0  93745-3 0  9992
2 37586  98.2181   3.1038 0313089 353.4505   6.2614 14.00456757666561
Source of the keplerian elements: AFSPC